Plymouth Peak Pro Challenge - INVENTORY

Station: INVENTORY - T Race

Distance: 10 Miles    

Release: 13-May-2019 11:45

Weather Release:    Arrival:

Wind at Release:     Wind at Arrival:

Temp at Release: °    Temp at Arrival: °

Lofts: 96

Birds: 514

Clocked: 470

Good Luck to Everyone!
Drops Pos Breeder Pigeon Name Color Sex Ent Arrival Speed To Win Eligible AOCPed
1 Chai Suen Siu - NY 0576-IF19-SLI BBSM H 1 11:48:15.10 5412.609 00:00:00 Yes
2 Fleet Washington - DC 1922-AU19-FLEE BC C 1 11:48:17.10 5357.686 00:00:02 Yes
3 Bryan Maier - PA 0721-IF19-ACES BB C 1 11:48:19.10 5303.867 00:00:04 Yes
4 Rory Smith - UT 9243-AU19-CDR BB C 1 11:49:21.70 4035.155 00:01:07 Yes
5 Han Lu - TX 0150-AU19-LU BBWF H 1 11:49:24.80 3987.915 00:01:10 Yes
6 Portland Loft - OR 0506-AU19-JEDD LTBC H 1 11:49:26.20 3966.942 00:01:11 Yes
7 V & G Loft - UT 2557-AU19-HARM Ace BC H 1 11:49:26.70 3959.505 00:01:12 Yes
8 J & M Partridge Loft - CA 1790-AU19-PASO BB C 1 11:49:28.90 3927.110 00:01:14 Yes
9 Ed Kehl - UT 2007-AU19-WGS BB C 1 11:49:29.40 3919.822 00:01:14 Yes
10 Fassio Loft - UT 9121-AU19-SLI BLK C 1 11:49:29.90 3912.560 00:01:15 Yes
11 Flying D Loft - TX 0265-AU19-FLYD BB C 1 11:49:30.00 3911.111 00:01:15 Yes
11 L S U - LA 0250-AU19-LSU BC H 1 11:49:30.00 3911.111 00:01:15 Yes
13 Brown & Evans - TX 0257-AU19-WF BB H 1 11:49:30.30 3906.770 00:01:15 Yes
14 Nick & Sons - WA 19417-AU19-NICK BC C 1 11:49:31.70 3886.640 00:01:17 Yes
15 A P C Loft - TX 19080-AU19-APC BBTC H 1 11:49:32.20 3879.500 00:01:17 Yes
15 Baldwin & Tilson - NC 9129-AU19-TENT 17751-8055 BBTC H 1 11:49:32.20 3879.500 00:01:17 Yes
17 D G F Loft - UT 0964-AU19-UVI BB C 1 11:49:32.90 3869.549 00:01:18 Yes
17 Sierra Ranch - CA 0957-AU19-SIER BB H 1 11:49:32.90 3869.549 00:01:18 Yes
19 Nick & Sons - WA 19438-AU19-NICK BCSM H 2 11:49:33.30 3863.886 00:01:18 Yes
20 Chai Suen Siu - NY 0585-IF19-SLI LTBC H 2 11:49:33.90 3855.422 00:01:19 Yes
21 Columba Loft - GA 9271-AU19-LYNC BB C 1 11:49:34.20 3851.204 00:01:19 Yes
22 Fleet Washington - DC 1915-AU19-FLEE BB C 2 11:49:34.60 3845.594 00:01:19 Yes
23 Ron Pairan - OH 0426-AU19-LFO BC C 1 11:49:35.70 3830.250 00:01:21 Yes
24 B W Loft - ID 19010-AU19-RMR BC H 1 11:49:36.50 3819.168 00:01:21 Yes
25 Brown & Evans - TX 0133-AU19-WF BB H 2 11:49:37.10 3810.899 00:01:22 Yes
26 Ed Kehl - UT 2005-AU19-WGS BBSP C 2 11:49:37.90 3799.928 00:01:23 Yes
26 Kolvenbag & Son - PA 1315-IF19-KOLV BCSM C 1 11:49:37.90 3799.928 00:01:23 Yes
28 Racine - WI 1813-AU19-RAC BB H 1 11:49:39.20 3782.235 00:01:24 Yes
29 Milo’s Loft - OK 22906-AU19-ARPU Engels/Vandenabeele BC H 1 11:49:39.50 3778.175 00:01:24 Yes
30 G & L Loft - OR 0547-AU19-WPC BB C 1 11:49:39.60 3776.824 00:01:25 Yes
30 M & Y Connection - MI 0023-AU19-MY 166 x 8000 BBPN H 1 11:49:39.60 3776.824 00:01:25 Yes
32 De La O-Siino - CA 9024-AU19-COOK BB C 1 11:49:40.80 3760.684 00:01:26 Yes
33 Baldwin & Tilson - NC 9036-AU19-TENT 17751-8055 BB H 2 11:49:40.90 3759.345 00:01:26 Yes
34 V & G Loft - UT 2564-AU19-HARM Lady Reble 2 RC H 2 11:49:42.10 3743.353 00:01:27 Yes
35 Portland Loft - OR 0511-AU19-JEDD BB C 2 11:49:42.80 3734.088 00:01:28 Yes
36 Racing Pigeon Mall - WA 0901-AU19-RPM BB H 1 11:49:43.50 3724.868 00:01:28 Yes
37 Bill Kluge - TX 26346-AU19-ARPU BB C 1 11:49:44.30 3714.386 00:01:29 Yes
37 Skylinerpl.Com - UT 0854-AU19-UVI 368 x 1146 BC H 1 11:49:44.30 3714.386 00:01:29 Yes
39 Racing Pigeon Digest - MT 1234-AU19-DIGE BC H 1 11:49:45.00 3705.263 00:01:30 Yes
40 Duvall/Whiteley - UT 1354-AU19-WFA BBSP H 1 11:49:45.50 3698.774 00:01:30 Yes
40 L S U - LA 0295-AU19-LSU BB H 2 11:49:45.50 3698.774 00:01:30 Yes
42 Rdm Syndicate - ON 10924-AU19-AA BB H 1 11:49:45.60 3697.479 00:01:31 Yes
43 Life Loft - WA 3063-AU19-CBF BBSP H 1 11:49:46.10 3691.017 00:01:31 Yes
44 Rory Smith - UT 9216-AU19-CDR BBSP C 2 11:49:47.00 3679.443 00:01:32 Yes
45 Nick & Sons - WA 19411-AU19-NICK BBSM H 3 11:49:47.30 3675.600 00:01:32 Yes
46 Bill Kluge - TX 26309-AU19-ARPU BC H 2 11:49:47.40 3674.322 00:01:32 Yes
47 Genesis Syndicate Loft - AZ 0015-IF19-GENE BC C 1 11:49:47.90 3667.940 00:01:33 Yes
47 Bill Kluge - TX 26336-AU19-ARPU MLY C 3 11:49:47.90 3667.940 00:01:33 Yes
49 Ed Kehl - UT 2011-AU19-WGS BLK H 3 11:49:48.40 3661.581 00:01:33 Yes
50 Sierra Ranch - CA 0958-AU19-SIER BB H 2 11:49:48.70 3657.776 00:01:34 Yes
51 High West Loft - UT 0438-AU19-UVI BCSM C 1 11:49:49.20 3651.452 00:01:34 Yes
52 D G F Loft - UT 0963-AU19-UVI BB C 2 11:49:49.60 3646.409 00:01:34 Yes
53 Bryan Maier - PA 0330-IF19-MAIE BB H 2 11:49:49.90 3642.635 00:01:35 Yes
54 Sweeney Family Loft - WI 0801-AU19-MWC BBWF H 1 11:49:50.60 3633.861 00:01:36 Yes
54 Relax Lofts - CA 80706-AU19-MAN BB H 1 11:49:50.60 3633.861 00:01:36 Yes
56 Wessel Family Lofts - CA 3006-AU19-ARC BB H 1 11:49:50.90 3630.113 00:01:36 Yes
56 Brook Loft - NC 0609-IF19-CCF BBTC H 1 11:49:50.90 3630.113 00:01:36 Yes
58 Duvall/Whiteley - UT 1356-AU19-WFA BCSP H 2 11:49:51.80 3618.917 00:01:37 Yes
59 J & M Partridge Loft - CA 1701-AU19-PASO BB H 2 11:49:52.40 3611.491 00:01:37 Yes
60 V & G Loft - UT 1982-AU19-GRAY Youko BB H 3 11:49:52.80 3606.557 00:01:38 Yes
61 Duvall/Whiteley - UT 1035-AU19-UVI BB C 3 11:49:53.10 3602.866 00:01:38 Yes
62 Rory Smith - UT 9207-AU19-CDR BB H 3 11:49:54.00 3591.837 00:01:39 Yes
63 Gold Star Loft - CA 1620-AU19-STON BCSM H 1 11:49:55.40 3574.814 00:01:40 Yes
63 Marengo Creek Farms - AL 3291-AU19-MCF BB H 1 11:49:55.40 3574.814 00:01:40 Yes
65 Brook Loft - NC 0610-IF19-CCF BBTC H 2 11:49:55.80 3569.980 00:01:41 Yes
66 Skylinerpl.Com - UT 0214-AU19-UVI 1247 x 44 BB C 2 11:49:56.00 3567.568 00:01:41 Yes
67 A P C Loft - TX 19205-AU19-APC BBTC H 2 11:49:56.10 3566.363 00:01:41 Yes
68 Kolvenbag & Son - PA 1342-IF19-KOLV DC C 2 11:49:56.70 3559.151 00:01:42 Yes
69 Morningside Racing Loft - TX 1045-AU19-MSRL 3670 x 7144 BBPN C 1 11:49:57.60 3548.387 00:01:43 Yes
70 Da-Dong - WI 1607-AU19-RAC BBSP H 1 11:49:58.20 3541.247 00:01:43 Yes
71 Nick & Sons - WA 19421-AU19-NICK BB H 4 11:49:58.70 3535.320 00:01:44 Yes
72 Marengo Creek Farms - AL 3288-AU19-MCF BBSM H 2 11:49:59.00 3531.773 00:01:44 Yes
73 B & B Loft 4 - TX 0600-AU19-NSL 26371x3333 BBPD H 1 11:49:59.10 3530.592 00:01:44 Yes
73 Baldwin & Tilson - NC 9030-AU19-TENT 1303-8036 RRWF H 3 11:49:59.10 3530.592 00:01:44 Yes
75 Morningside Racing Loft - TX 1018-AU19-MSRL 1153 x 1023 BB H 2 11:49:59.60 3524.700 00:01:44 Yes
76 T B Brothers Loft - MS 12707-AU19-JEDD BBSM H 1 11:50:00.30 3516.484 00:01:45 Yes
77 P N W Challenge - ID 0002-AU19-PNWC BCWF H 1 11:50:00.40 3515.313 00:01:45 Yes
78 Mcgrew And Smith - TX 2193-AU19-TEXA BB H 1 11:50:01.00 3508.306 00:01:46 Yes
79 Eastern Pearl Loft - VA 0543-AU19-EPL 🈚️量543=698x945 BBWF H 1 11:50:01.90 3497.847 00:01:47 Yes
80 Eastern Pearl Loft - VA 0556-AU19-EPL 🈚️量556=403x182 BBWF C 2 11:50:02.40 3492.063 00:01:47 Yes
81 Kolvenbag & Son - PA 0320-IF19-PHX BBSM H 3 11:50:02.70 3488.603 00:01:48 Yes
82 Bill Kluge - TX 26326-AU19-ARPU BBSP C 4 11:50:03.40 3480.554 00:01:48 Yes
83 Duvall/Whiteley - UT 1058-AU19-UVI BBWF H 4 11:50:03.80 3475.971 00:01:49 Yes
84 Rory Smith - UT 9203-AU19-CDR BC H 4 11:50:03.90 3474.827 00:01:49 Yes
85 Bryan Maier - PA 0324-IF19-MAIE BB H 3 11:50:04.20 3471.400 00:01:49 Yes
85 Big Game Loft - CA 0124-AU19-BIGG BCWF C 1 11:50:04.20 3471.400 00:01:49 Yes
87 Genesis Syndicate Loft - AZ 0046-IF19-GENE LTBC H 2 11:50:04.50 3467.980 00:01:49 Yes
88 Rdm Syndicate - ON 10909-AU19-AA BC H 2 11:50:05.00 3462.295 00:01:50 Yes
89 Bill Kluge - TX 26324-AU19-ARPU BB H 5 11:50:05.10 3461.160 00:01:50 Yes
90 J & M Partridge Loft - CA 1622-AU19-PASO BSLT H 3 11:50:06.90 3440.860 00:01:52 Yes
90 Spring Break Race - UT 20129-AU19-AA BB C 1 11:50:06.90 3440.860 00:01:52 Yes
92 Sweeney Family Loft - WI 0803-AU19-MWC BB H 2 11:50:07.30 3436.381 00:01:52 Yes
93 Sweeney Family Loft - WI 0811-AU19-MWC BB H 3 11:50:08.60 3421.905 00:01:54 Yes
94 Bieche-Stevenson - CA 9219-AU19-BIEC BBSM C 1 11:50:09.20 3415.265 00:01:54 Yes
95 Bieche-Stevenson - CA 9154-AU19-BIEC BC H 2 11:50:09.50 3411.955 00:01:54 Yes
95 Skylinerpl.Com - UT 0227-AU19-UVI "Princess" BB H 3 11:50:09.50 3411.955 00:01:54 Yes
97 Skylinerpl.Com - UT 0184-AU19-UVI Troy x Belser 492 BBSP C 4 11:50:10.10 3405.353 00:01:55 Yes
98 98 M J - PA 0051-AU19-AJL BBWF C 1 11:50:10.20 3404.255 00:01:55 Yes
99 P N W Challenge - ID 0514-AU19-IDA BB H 2 11:50:10.50 3400.966 00:01:55 Yes
100 Nick & Sons - WA 19430-AU19-NICK BC C 5 11:50:10.80 3397.683 00:01:56 Yes

There are 542 bird records

Note: These Race Results are unofficial and subject to change until verified by the Race Committee and declared final.